Regional Weather Roundup
Issued by NWS Green Bay, WI

Home | Current Version | Previous Version | Text Only | Print | Product List | Glossary On
Versions: 1 2 3 4 5 6 7 8 9 10 11 12 13 14 15 16 17 18 19 20 21 22 23 24 25 26 27 28 29 30 31 32 33 34 35 36 37 38 39 40 41 42 43 44 45 46 47 48 49 50
000
ASUS43 KGRB 230711
RWRGRB

NORTH-CENTRAL AND NORTHEAST WISCONSIN REGIONAL WEATHER ROUNDUP
NATIONAL WEATHER SERVICE GREEN BAY WI
200 AM CDT SUN JUL 23 2017

WIZ005-009-010>012-018-019-230800-
NORTH CENTRAL WISCONSIN

CITY           SKY/WX    TMP DP  RH WIND       PRES   REMARKS
IRONWOOD       FOG       58  58 100 CALM      29.81F VSB 1/4
MANITOWISH WTR CLOUDY    62  62 100 CALM      29.82S
ARBOR VITAE    CLEAR     62  61  96 CALM      29.81F
EAGLE RIVER    PTCLDY    64  64 100 CALM      29.81S
LAND O LAKES   FOG       63  63 100 CALM      29.82F VSB 3/4
RHINELANDER    FOG       59  59 100 CALM      29.81F VSB 3/4
PHILLIPS       FOG       58  58 100 CALM      29.81F VSB 1/4
ANTIGO         PTCLDY    63  63 100 CALM      29.81S
TOMAHAWK       FOG       59  58  97 CALM      29.82F VSB 3/4
MERRILL        CLEAR     65  65  99 W3        29.82S
$$

WIZ013-073-230800-
NORTHEAST WISCONSIN

CITY           SKY/WX    TMP DP  RH WIND       PRES   REMARKS
IRON MOUNTAIN  FOG       63  61  93 CALM      29.76F VSB 3/4
MARINETTE      CLEAR     66  63  90 SW5       29.76F
OCONTO         MOCLDY    63  62  99 CALM      29.76F
$$

WIZ017-030-035>037-045-230800-
CENTRAL WISCONSIN

CITY           SKY/WX    TMP DP  RH WIND       PRES   REMARKS
MEDFORD        CLEAR     62  62  97 CALM      29.83S
WAUSAU         CLEAR     68  65  90 NW7       29.80R
MOSINEE        CLEAR     68  68 100 NW5       29.82S
MARSHFIELD     CLEAR     67  63  87 NW6       29.82R
WISC RAPIDS    CLEAR     68  66  93 NW3       29.82S
STEVENS POINT  CLEAR     69  68  98 W6        29.81S
WAUPACA        CLEAR     72  70  95 W5        29.78F
SHAWANO        FOG       69  67  94 CALM      29.77S VSB 3/4
CLINTONVILLE   FOG       70  68  94 N3        29.78S VSB 1/2
WAUTOMA        PTCLDY    71  70  96 W7        29.81R
$$

WIZ038-039-048-051-230800-
FOX VALLEY

CITY           SKY/WX    TMP DP  RH WIND       PRES   REMARKS
NWS GREEN BAY  PTCLDY    68  68 100 SW3       29.77F
APPLETON       PTCLDY    70  68  94 CALM      29.77F
OSHKOSH        CLOUDY    73  71  93 W5        29.77S
FOND DU LAC    MOCLDY    73  68  84 SW6       29.79R
$$

WIZ022-050-052-230800-
EAST CENTRAL WISCONSIN

CITY           SKY/WX    TMP DP  RH WIND       PRES   REMARKS
EPHRAIM        FAIR      64  63  97 CALM      29.76S
WASHINGTON ISL FAIR      64  63  98 S3        29.75F
STURGEON BAY     N/A     66  65  96 SW8       29.76
MANITOWOC      TSTM      67  65  93 S8        29.81S
SHEBOYGAN      LGT RAIN  67  67 100 E7        29.80S
$$

LMZ563-521-522-541>543-230800-
LAKESHORE

STATION/POSITION TIME  TEMP    WIND        PRES    VSBY  WAVE
                       AIR SEA DIR/SP/G                  HT/PER
                 (UTC) (F)     (DEG/KT/KT) (MB)    (MI)  (FT/S)
SHEBOYGAN LKSHOR 0700   67     110/  8/  8 1008.9R
KEWAUNEE LKSHORE 0648          280/  2/  3 1007.5F
NORTHPORT PIER   0640   67     200/  3/  8 1007.8S
N MID LAKE BUOY  0650   69 68   90/  2/  4 1008.0F         0
S GREEN BAY BUOY 0700   68 73  140/  8/ 10 1007.4
SISTER BAY LKSHO 0702   66     150/  3/  5   N/A
CHAMBERS ISLAND  0640   69     170/  3/  6 1007.1F
MENOMINEE LKSHOR 0648          170/  8/ 10 1007.4F
$$



USA.gov is the U.S. government's official web portal to all federal, state and local government web resources and services.